| time (UTC) | temp F | wind direction | speed MPH | gust MPH | rain 1hr in | rain 24hr in | rain mn in | humidity % | barometer mb |
| 20260904211738 | 62 | 297 | 3.0 | 8.0 | 0.00 | 0.07 | 0.07 | 77 | 1015.1 |
| 20260904211237 | 63 | 333 | 4.0 | 6.0 | 0.00 | 0.07 | 0.07 | 76 | 1015.1 |
| 20260904210738 | 63 | 238 | 4.0 | 6.0 | 0.00 | 0.07 | 0.07 | 75 | 1015.1 |
| 20260904210238 | 62 | 49 | 4.0 | 6.0 | 0.00 | 0.07 | 0.07 | 76 | 1015.1 |
| 20260904205737 | 62 | 272 | 4.0 | 5.0 | 0.00 | 0.07 | 0.07 | 78 | 1015.1 |
| 20260904205237 | 62 | 327 | 5.0 | 7.0 | 0.00 | 0.07 | 0.07 | 79 | 1015.1 |
| 20260904204737 | 61 | 338 | 2.0 | 8.0 | 0.00 | 0.07 | 0.07 | 79 | 1015.0 |
| 20260904204237 | 61 | 282 | 2.0 | 8.0 | 0.00 | 0.07 | 0.07 | 80 | 1015.0 |
| 20260904203737 | 61 | 308 | 6.0 | 8.0 | 0.00 | 0.07 | 0.07 | 79 | 1015.0 |
| 20260904202737 | 61 | 280 | 3.0 | 8.0 | 0.00 | 0.07 | 0.07 | 80 | 1015.0 |
| 20260904202236 | 61 | 348 | 2.0 | 9.0 | 0.00 | 0.07 | 0.07 | 80 | 1015.0 |
| 20260904201736 | 60 | 272 | 3.0 | 9.0 | 0.00 | 0.07 | 0.07 | 81 | 1014.9 |
| 20260904201236 | 60 | 271 | 2.0 | 7.0 | 0.00 | 0.07 | 0.07 | 81 | 1014.9 |
| 20260904195737 | 59 | 263 | 3.0 | 7.0 | 0.00 | 0.07 | 0.07 | 82 | 1015.0 |
| 20260904195236 | 59 | 279 | 2.0 | 7.0 | 0.00 | 0.07 | 0.07 | 82 | 1015.0 |
| 20260904194236 | 59 | 320 | 4.0 | 6.0 | 0.00 | 0.07 | 0.07 | 84 | 1015.0 |
| 20260904193236 | 59 | 263 | 4.0 | 8.0 | 0.00 | 0.07 | 0.07 | 82 | 1015.2 |
| 20260904192736 | 59 | 311 | 1.0 | 8.0 | 0.00 | 0.07 | 0.07 | 82 | 1015.1 |
| 20260904192236 | 59 | 328 | 2.0 | 6.0 | 0.00 | 0.07 | 0.07 | 82 | 1015.0 |
| 20260904191736 | 59 | 288 | 2.0 | 5.0 | 0.00 | 0.07 | 0.07 | 83 | 1015.0 |
| 20260904191235 | 58 | 296 | 0.0 | 6.0 | 0.00 | 0.07 | 0.07 | 83 | 1015.1 |
| 20260904190735 | 58 | 302 | 2.0 | 6.0 | 0.00 | 0.07 | 0.07 | 83 | 1015.1 |
| 20260904185236 | 57 | 324 | 2.0 | 6.0 | 0.00 | 0.07 | 0.07 | 82 | 1014.9 |
| 20260904184735 | 58 | 347 | 2.0 | 6.0 | 0.00 | 0.07 | 0.07 | 82 | 1014.9 |
| 20260904184235 | 57 | 11 | 6.0 | 6.0 | 0.00 | 0.07 | 0.07 | 84 | 1015.0 |
| 20260904182735 | 56 | 283 | 3.0 | 6.0 | 0.00 | 0.07 | 0.07 | 86 | 1014.8 |
| 20260904182234 | 56 | 278 | 2.0 | 5.0 | 0.00 | 0.07 | 0.07 | 85 | 1014.8 |
| 20260904181734 | 56 | 275 | 3.0 | 5.0 | 0.00 | 0.07 | 0.07 | 86 | 1014.7 |
| 20260904181234 | 56 | 271 | 2.0 | 5.0 | 0.00 | 0.07 | 0.07 | 86 | 1014.7 |
| 20260904180734 | 56 | 296 | 0.0 | 5.0 | 0.00 | 0.07 | 0.07 | 86 | 1014.8 |
| 20260904180234 | 57 | 262 | 1.0 | 5.0 | 0.00 | 0.07 | 0.07 | 85 | 1014.7 |
| 20260904175234 | 59 | 286 | 3.0 | 4.0 | 0.00 | 0.07 | 0.07 | 83 | 1014.7 |
| 20260904174734 | 60 | 263 | 0.0 | 2.0 | 0.00 | 0.07 | 0.07 | 85 | 1014.7 |
| 20260904174234 | 60 | 241 | 1.0 | 4.0 | 0.00 | 0.07 | 0.07 | 85 | 1014.6 |
| 20260904173733 | 59 | 150 | 0.0 | 4.0 | 0.00 | 0.07 | 0.07 | 88 | 1014.7 |
| 20260904173233 | 59 | 128 | 0.0 | 3.0 | 0.00 | 0.07 | 0.07 | 88 | 1014.6 |
| 20260904172733 | 58 | 98 | 2.0 | 3.0 | 0.00 | 0.07 | 0.07 | 89 | 1014.6 |
| 20260904171733 | 57 | 311 | 0.0 | 3.0 | 0.00 | 0.07 | 0.07 | 89 | 1014.6 |
| 20260904171233 | 57 | 359 | 3.0 | 3.0 | 0.00 | 0.07 | 0.07 | 91 | 1014.6 |
| 20260904170733 | 57 | 30 | 2.0 | 3.0 | 0.00 | 0.07 | 0.07 | 89 | 1014.7 |
| 20260904165733 | 57 | 254 | 0.0 | 3.0 | 0.00 | 0.07 | 0.07 | 91 | 1014.8 |
| 20260904165233 | 57 | 245 | 1.0 | 3.0 | 0.00 | 0.07 | 0.07 | 92 | 1014.8 |
| 20260904164733 | 56 | 245 | 2.0 | 3.0 | 0.00 | 0.07 | 0.07 | 92 | 1014.8 |
| 20260904164232 | 56 | 335 | 1.0 | 2.0 | 0.00 | 0.07 | 0.07 | 92 | 1014.7 |
| 20260904163232 | 55 | 15 | 0.0 | 5.0 | 0.00 | 0.07 | 0.07 | 93 | 1014.7 |
| 20260904162733 | 56 | 113 | 2.0 | 5.0 | 0.00 | 0.07 | 0.07 | 91 | 1014.8 |
| 20260904162232 | 56 | 89 | 5.0 | 5.0 | 0.00 | 0.07 | 0.07 | 93 | 1014.7 |
| 20260904161232 | 56 | 129 | 3.0 | 4.0 | 0.00 | 0.07 | 0.07 | 93 | 1014.7 |
| 20260904160732 | 56 | 94 | 0.0 | 0.0 | 0.00 | 0.07 | 0.07 | 93 | 1014.7 |
| 20260904160301 | 56 | 96 | 0.0 | 0.0 | 0.00 | 0.07 | 0.07 | 94 | 1014.6 |
| 20260904155802 | 56 | 96 | 0.0 | 0.0 | 0.00 | 0.07 | 0.07 | 94 | 1014.7 |
| 20260904155232 | 55 | 131 | 0.0 | 3.0 | 0.00 | 0.07 | 0.07 | 95 | 1014.7 |
| 20260904154802 | 54 | 131 | 0.0 | 3.0 | 0.00 | 0.07 | 0.07 | 95 | 1014.6 |
| 20260904154301 | 54 | 131 | 2.0 | 3.0 | 0.00 | 0.07 | 0.07 | 95 | 1014.6 |
| 20260904153731 | 54 | 117 | 1.0 | 3.0 | 0.00 | 0.07 | 0.07 | 94 | 1014.5 |
| 20260904153301 | 55 | 139 | 0.0 | 3.0 | 0.01 | 0.07 | 0.07 | 94 | 1014.4 |
| 20260904152731 | 55 | 162 | 0.0 | 0.0 | 0.01 | 0.07 | 0.07 | 96 | 1014.2 |
| 20260904152300 | 54 | 162 | 0.0 | 2.0 | 0.01 | 0.07 | 0.07 | 96 | 1014.2 |
| 20260904151800 | 54 | 290 | 0.0 | 5.0 | 0.01 | 0.07 | 0.07 | 96 | 1014.0 |
| 20260904151300 | 53 | 237 | 2.0 | 5.0 | 0.01 | 0.07 | 0.07 | 95 | 1013.9 |
| 20260904150301 | 53 | 282 | 4.0 | 6.0 | 0.02 | 0.07 | 0.07 | 96 | 1013.8 |
| 20260904145800 | 53 | 273 | 2.0 | 5.0 | 0.02 | 0.07 | 0.07 | 96 | 1013.9 |
| 20260904144800 | 53 | 265 | 2.0 | 4.0 | 0.02 | 0.07 | 0.07 | 96 | 1013.7 |
| 20260904143229 | 52 | 294 | 4.0 | 6.0 | 0.02 | 0.06 | 0.06 | 96 | 1013.6 |
| 20260904142730 | 52 | 264 | 3.0 | 5.0 | 0.02 | 0.06 | 0.06 | 96 | 1013.6 |
| 20260904142300 | 52 | 252 | 2.0 | 4.0 | 0.03 | 0.06 | 0.06 | 96 | 1013.6 |
| 20260904141759 | 52 | 279 | 2.0 | 5.0 | 0.03 | 0.06 | 0.06 | 96 | 1013.6 |
| 20260904140259 | 52 | 267 | 4.0 | 5.0 | 0.02 | 0.05 | 0.05 | 96 | 1013.4 |
| 20260904135759 | 52 | 267 | 4.0 | 5.0 | 0.02 | 0.05 | 0.05 | 96 | 1013.5 |
| 20260904135258 | 52 | 283 | 4.0 | 4.0 | 0.02 | 0.05 | 0.05 | 96 | 1013.4 |
| 20260904134758 | 52 | 108 | 1.0 | 3.0 | 0.02 | 0.05 | 0.05 | 95 | 1013.4 |
| 20260904134258 | 52 | 108 | 1.0 | 2.0 | 0.01 | 0.04 | 0.04 | 95 | 1013.3 |
| 20260904133758 | 52 | 108 | 0.0 | 1.0 | 0.01 | 0.04 | 0.04 | 95 | 1013.3 |
| 20260904133258 | 52 | 108 | 0.0 | 1.0 | 0.02 | 0.04 | 0.04 | 95 | 1013.3 |
| 20260904132758 | 52 | 108 | 0.0 | 0.0 | 0.02 | 0.04 | 0.04 | 95 | 1013.2 |
| 20260904132258 | 52 | 108 | 0.0 | 2.0 | 0.01 | 0.03 | 0.03 | 95 | 1013.1 |
| 20260904131758 | 52 | 108 | 0.0 | 3.0 | 0.01 | 0.03 | 0.03 | 95 | 1013.1 |
| 20260904131258 | 52 | 108 | 1.0 | 3.0 | 0.01 | 0.03 | 0.03 | 95 | 1013.2 |
| 20260904130758 | 52 | 265 | 0.0 | 2.0 | 0.01 | 0.03 | 0.03 | 95 | 1013.0 |
| 20260904130258 | 52 | 264 | 0.0 | 2.0 | 0.02 | 0.03 | 0.03 | 95 | 1012.9 |
| 20260904125757 | 52 | 165 | 0.0 | 4.0 | 0.02 | 0.03 | 0.03 | 95 | 1012.9 |
| 20260904125258 | 52 | 127 | 0.0 | 7.0 | 0.02 | 0.03 | 0.03 | 95 | 1012.9 |
| 20260904123757 | 52 | 164 | 0.0 | 2.0 | 0.02 | 0.03 | 0.03 | 94 | 1012.7 |
| 20260904123257 | 52 | 164 | 0.0 | 3.0 | 0.02 | 0.03 | 0.02 | 94 | 1012.6 |
| 20260904122757 | 52 | 138 | 0.0 | 4.0 | 0.02 | 0.03 | 0.02 | 94 | 1012.6 |
| 20260904122257 | 52 | 257 | 1.0 | 4.0 | 0.02 | 0.03 | 0.02 | 94 | 1012.6 |
| 20260904121757 | 52 | 245 | 2.0 | 5.0 | 0.02 | 0.04 | 0.02 | 94 | 1012.4 |
| 20260904121257 | 52 | 255 | 2.0 | 5.0 | 0.02 | 0.05 | 0.02 | 94 | 1012.2 |
| 20260904120757 | 52 | 266 | 5.0 | 5.0 | 0.02 | 0.06 | 0.02 | 94 | 1012.2 |
| 20260904120256 | 52 | 272 | 2.0 | 5.0 | 0.01 | 0.06 | 0.01 | 94 | 1012.2 |
| 20260904115756 | 52 | 275 | 2.0 | 5.0 | 0.01 | 0.06 | 0.01 | 94 | 1012.3 |
| 20260904115256 | 52 | 277 | 0.0 | 4.0 | 0.01 | 0.07 | 0.01 | 94 | 1012.4 |
| 20260904114756 | 52 | 279 | 2.0 | 3.0 | 0.01 | 0.07 | 0.01 | 94 | 1012.4 |
| 20260904114256 | 52 | 148 | 0.0 | 0.0 | 0.01 | 0.08 | 0.01 | 94 | 1012.3 |
| 20260904113256 | 52 | 148 | 0.0 | 0.0 | 0.00 | 0.08 | 0.00 | 94 | 1012.3 |
| 20260904112756 | 52 | 148 | 0.0 | 2.0 | 0.00 | 0.09 | 0.00 | 93 | 1012.3 |
| 20260904112256 | 52 | 148 | 0.0 | 2.0 | 0.00 | 0.10 | 0.00 | 93 | 1012.3 |
| 20260904111756 | 52 | 148 | 0.0 | 0.0 | 0.00 | 0.10 | 0.00 | 93 | 1012.2 |
| 20260904110756 | 52 | 148 | 0.0 | 0.0 | 0.00 | 0.10 | 0.00 | 93 | 1012.2 |
| 20260904110256 | 52 | 148 | 0.0 | 0.0 | 0.00 | 0.10 | 0.00 | 93 | 1012.2 |
| 20260904105255 | 52 | 148 | 0.0 | 0.0 | 0.00 | 0.10 | 0.00 | 92 | 1012.2 |
| 20260904104755 | 52 | 148 | 0.0 | 0.0 | 0.00 | 0.10 | 0.00 | 92 | 1012.1 |
| 20260904103755 | 53 | 148 | 0.0 | 3.0 | 0.00 | 0.10 | 0.00 | 91 | 1012.1 |
| 20260904102755 | 53 | 270 | 0.0 | 0.0 | 0.00 | 0.10 | 0.00 | 90 | 1012.1 |
| 20260904102255 | 53 | 271 | 0.0 | 0.0 | 0.00 | 0.10 | 0.00 | 90 | 1012.0 |
| 20260904101755 | 53 | 271 | 0.0 | 1.0 | 0.00 | 0.10 | 0.00 | 90 | 1011.9 |
| 20260904101254 | 53 | 271 | 0.0 | 4.0 | 0.00 | 0.10 | 0.00 | 90 | 1011.8 |
| 20260904100754 | 53 | 271 | 0.0 | 4.0 | 0.00 | 0.10 | 0.00 | 90 | 1011.7 |
| 20260904100254 | 53 | 260 | 0.0 | 5.0 | 0.00 | 0.10 | 0.00 | 91 | 1011.7 |
| 20260904095754 | 53 | 274 | 1.0 | 5.0 | 0.00 | 0.10 | 0.00 | 91 | 1011.7 |
| 20260904095254 | 53 | 274 | 0.0 | 4.0 | 0.00 | 0.10 | 0.00 | 92 | 1011.6 |
| 20260904094754 | 53 | 264 | 1.0 | 3.0 | 0.00 | 0.10 | 0.00 | 92 | 1011.6 |
| 20260904093754 | 53 | 277 | 2.0 | 3.0 | 0.00 | 0.10 | 0.00 | 92 | 1011.5 |
| 20260904092754 | 53 | 259 | 1.0 | 2.0 | 0.00 | 0.10 | 0.00 | 92 | 1011.7 |
| 20260904092253 | 53 | 259 | 0.0 | 2.0 | 0.00 | 0.10 | 0.00 | 92 | 1011.7 |
| 20260904091753 | 53 | 259 | 1.0 | 2.0 | 0.00 | 0.10 | 0.00 | 92 | 1011.8 |
| 20260904091253 | 53 | 259 | 0.0 | 2.0 | 0.00 | 0.10 | 0.00 | 93 | 1011.9 |
| 20260904090753 | 53 | 259 | 1.0 | 2.0 | 0.00 | 0.10 | 0.00 | 93 | 1011.9 |
| 20260904090253 | 52 | 259 | 0.0 | 3.0 | 0.00 | 0.10 | 0.00 | 93 | 1011.9 |
| 20260904085753 | 52 | 259 | 0.0 | 3.0 | 0.00 | 0.10 | 0.00 | 93 | 1011.9 |
| 20260904085253 | 52 | 266 | 0.0 | 1.0 | 0.00 | 0.10 | 0.00 | 93 | 1011.9 |
| 20260904084752 | 52 | 267 | 0.0 | 1.0 | 0.00 | 0.10 | 0.00 | 93 | 1011.9 |
| 20260904084253 | 52 | 267 | 0.0 | 2.0 | 0.00 | 0.10 | 0.00 | 93 | 1012.0 |
| 20260904083752 | 52 | 267 | 0.0 | 2.0 | 0.00 | 0.10 | 0.00 | 93 | 1012.1 |
| 20260904083252 | 52 | 267 | 0.0 | 1.0 | 0.00 | 0.10 | 0.00 | 93 | 1012.1 |
| 20260904082752 | 52 | 267 | 0.0 | 1.0 | 0.00 | 0.10 | 0.00 | 93 | 1012.1 |
| 20260904082252 | 52 | 267 | 0.0 | 1.0 | 0.00 | 0.10 | 0.00 | 93 | 1012.2 |
| 20260904081752 | 52 | 267 | 0.0 | 0.0 | 0.00 | 0.10 | 0.00 | 92 | 1012.2 |
| 20260904081252 | 52 | 267 | 0.0 | 0.0 | 0.00 | 0.10 | 0.00 | 93 | 1012.2 |
| 20260904080752 | 52 | 267 | 0.0 | 0.0 | 0.00 | 0.10 | 0.00 | 92 | 1012.1 |
| 20260904080252 | 52 | 267 | 0.0 | 0.0 | 0.00 | 0.10 | 0.00 | 92 | 1012.0 |
| 20260904075751 | 52 | 267 | 0.0 | 0.0 | 0.00 | 0.10 | 0.00 | 92 | 1012.0 |
| 20260904075252 | 52 | 267 | 0.0 | 0.0 | 0.00 | 0.10 | 0.00 | 92 | 1012.1 |
| 20260904074751 | 52 | 266 | 0.0 | 0.0 | 0.00 | 0.10 | 0.00 | 91 | 1012.1 |
| 20260904074251 | 53 | 267 | 0.0 | 1.0 | 0.00 | 0.10 | 0.00 | 91 | 1012.1 |
| 20260904073751 | 53 | 267 | 0.0 | 2.0 | 0.00 | 0.10 | 0.00 | 91 | 1012.0 |
| 20260904073251 | 53 | 267 | 0.0 | 2.0 | 0.00 | 0.10 | 0.00 | 91 | 1012.0 |
| 20260904071750 | 53 | 257 | 1.0 | 3.0 | 0.00 | 0.10 | 0.00 | 90 | 1011.9 |
| 20260904071251 | 53 | 257 | 2.0 | 3.0 | 0.00 | 0.10 | 0.00 | 91 | 1011.9 |
| 20260904070750 | 53 | 257 | 0.0 | 2.0 | 0.00 | 0.10 | 0.00 | 90 | 1012.0 |
| 20260904070251 | 53 | 98 | 0.0 | 1.0 | 0.00 | 0.10 | 0.00 | 91 | 1011.9 |
| 20260904065750 | 53 | 98 | 0.0 | 1.0 | 0.00 | 0.10 | 0.10 | 91 | 1011.9 |
| 20260904064750 | 54 | 98 | 0.0 | 3.0 | 0.00 | 0.10 | 0.10 | 89 | 1011.8 |
| 20260904064250 | 54 | 98 | 0.0 | 3.0 | 0.00 | 0.10 | 0.10 | 89 | 1011.8 |
| 20260904063750 | 54 | 270 | 1.0 | 3.0 | 0.00 | 0.10 | 0.10 | 88 | 1011.7 |
| 20260904063250 | 54 | 270 | 0.0 | 3.0 | 0.00 | 0.10 | 0.10 | 88 | 1011.7 |
| 20260904062750 | 55 | 259 | 0.0 | 4.0 | 0.00 | 0.10 | 0.10 | 88 | 1011.6 |
| 20260904062249 | 55 | 272 | 2.0 | 4.0 | 0.00 | 0.10 | 0.10 | 88 | 1011.5 |
| 20260904061750 | 55 | 267 | 2.0 | 3.0 | 0.00 | 0.10 | 0.10 | 87 | 1011.5 |
| 20260904061249 | 55 | 253 | 2.0 | 3.0 | 0.00 | 0.10 | 0.10 | 87 | 1011.5 |
| 20260904060749 | 55 | 266 | 2.0 | 3.0 | 0.00 | 0.10 | 0.10 | 87 | 1011.5 |
| 20260904055749 | 55 | 257 | 1.0 | 3.0 | 0.00 | 0.10 | 0.10 | 88 | 1011.5 |
| 20260904055249 | 55 | 254 | 2.0 | 3.0 | 0.00 | 0.10 | 0.10 | 88 | 1011.4 |
| 20260904054749 | 55 | 266 | 2.0 | 4.0 | 0.00 | 0.10 | 0.10 | 88 | 1011.4 |
| 20260904054249 | 55 | 255 | 2.0 | 4.0 | 0.00 | 0.10 | 0.10 | 88 | 1011.4 |
| 20260904053749 | 55 | 234 | 1.0 | 4.0 | 0.00 | 0.10 | 0.10 | 88 | 1011.5 |
| 20260904053249 | 55 | 250 | 4.0 | 4.0 | 0.00 | 0.10 | 0.10 | 88 | 1011.4 |
| 20260904052749 | 55 | 251 | 3.0 | 5.0 | 0.00 | 0.10 | 0.10 | 87 | 1011.4 |
| 20260904051749 | 55 | 288 | 5.0 | 6.0 | 0.00 | 0.10 | 0.10 | 87 | 1011.5 |
| 20260904050748 | 55 | 264 | 2.0 | 5.0 | 0.00 | 0.10 | 0.10 | 88 | 1011.5 |
| 20260904050248 | 55 | 257 | 3.0 | 5.0 | 0.00 | 0.10 | 0.10 | 88 | 1011.5 |
| 20260904045748 | 55 | 264 | 4.0 | 6.0 | 0.00 | 0.10 | 0.10 | 88 | 1011.5 |
| 20260904045248 | 55 | 259 | 2.0 | 6.0 | 0.00 | 0.10 | 0.10 | 88 | 1011.5 |
| 20260904044747 | 55 | 250 | 4.0 | 6.0 | 0.00 | 0.10 | 0.10 | 88 | 1011.5 |
| 20260904044247 | 55 | 255 | 2.0 | 6.0 | 0.00 | 0.10 | 0.10 | 88 | 1011.5 |
| 20260904043747 | 55 | 260 | 3.0 | 6.0 | 0.00 | 0.10 | 0.10 | 88 | 1011.6 |
| 20260904043247 | 55 | 258 | 3.0 | 4.0 | 0.00 | 0.10 | 0.10 | 88 | 1011.5 |
| 20260904042747 | 55 | 257 | 2.0 | 4.0 | 0.00 | 0.10 | 0.10 | 88 | 1011.6 |
| 20260904041247 | 55 | 255 | 3.0 | 4.0 | 0.00 | 0.10 | 0.10 | 88 | 1011.5 |
| 20260904035747 | 55 | 277 | 3.0 | 6.0 | 0.00 | 0.10 | 0.10 | 88 | 1011.4 |
| 20260904034746 | 55 | 269 | 2.0 | 7.0 | 0.00 | 0.10 | 0.10 | 88 | 1011.3 |
| 20260904034246 | 55 | 292 | 5.0 | 7.0 | 0.00 | 0.10 | 0.10 | 88 | 1011.2 |
| 20260904033746 | 55 | 273 | 3.0 | 6.0 | 0.00 | 0.10 | 0.10 | 87 | 1011.2 |
| 20260904032746 | 55 | 276 | 2.0 | 6.0 | 0.00 | 0.10 | 0.10 | 87 | 1011.1 |
| 20260904032245 | 55 | 304 | 5.0 | 5.0 | 0.00 | 0.10 | 0.10 | 87 | 1011.1 |
| 20260904030745 | 56 | 275 | 4.0 | 5.0 | 0.00 | 0.10 | 0.10 | 86 | 1010.9 |
| 20260904030245 | 56 | 261 | 1.0 | 5.0 | 0.00 | 0.10 | 0.10 | 86 | 1011.0 |
| 20260904025745 | 56 | 281 | 3.0 | 6.0 | 0.00 | 0.10 | 0.10 | 86 | 1010.9 |
| 20260904024745 | 58 | 281 | 2.0 | 5.0 | 0.00 | 0.10 | 0.10 | 83 | 1010.8 |
| 20260904024245 | 59 | 257 | 2.0 | 3.0 | 0.00 | 0.10 | 0.10 | 81 | 1010.6 |
| 20260904023744 | 59 | 115 | 0.0 | 1.0 | 0.00 | 0.10 | 0.10 | 78 | 1010.5 |
| 20260904023245 | 59 | 115 | 0.0 | 2.0 | 0.00 | 0.10 | 0.10 | 78 | 1010.5 |
| 20260904022745 | 60 | 115 | 0.0 | 3.0 | 0.00 | 0.10 | 0.10 | 77 | 1010.5 |
| 20260904022244 | 60 | 115 | 0.0 | 3.0 | 0.00 | 0.10 | 0.10 | 77 | 1010.5 |
| 20260904021744 | 60 | 121 | 2.0 | 4.0 | 0.00 | 0.10 | 0.10 | 77 | 1010.4 |
| 20260904021244 | 60 | 116 | 1.0 | 4.0 | 0.00 | 0.10 | 0.10 | 76 | 1010.4 |
| 20260904020744 | 61 | 117 | 1.0 | 3.0 | 0.00 | 0.10 | 0.10 | 76 | 1010.5 |
| 20260904020244 | 61 | 72 | 0.0 | 2.0 | 0.00 | 0.10 | 0.10 | 75 | 1010.5 |
| 20260904015744 | 61 | 110 | 1.0 | 2.0 | 0.00 | 0.10 | 0.10 | 76 | 1010.5 |
| 20260904015244 | 61 | 12 | 0.0 | 2.0 | 0.00 | 0.10 | 0.10 | 76 | 1010.5 |
| 20260904014744 | 61 | 352 | 1.0 | 3.0 | 0.00 | 0.10 | 0.10 | 76 | 1010.5 |
| 20260904013743 | 61 | 339 | 0.0 | 2.0 | 0.00 | 0.10 | 0.10 | 76 | 1010.6 |
| 20260904013244 | 61 | 339 | 1.0 | 2.0 | 0.00 | 0.10 | 0.10 | 76 | 1010.5 |
| 20260904012743 | 61 | 339 | 0.0 | 2.0 | 0.00 | 0.10 | 0.10 | 76 | 1010.6 |
| 20260904011743 | 62 | 106 | 0.0 | 3.0 | 0.00 | 0.10 | 0.10 | 76 | 1010.5 |
| 20260904011243 | 62 | 328 | 2.0 | 3.0 | 0.00 | 0.10 | 0.10 | 74 | 1010.5 |
| 20260904010243 | 61 | 21 | 2.0 | 4.0 | 0.00 | 0.10 | 0.10 | 75 | 1010.4 |
| 20260904005742 | 61 | 21 | 2.0 | 4.0 | 0.00 | 0.10 | 0.10 | 75 | 1010.3 |
| 20260904004743 | 61 | 21 | 2.0 | 4.0 | 0.00 | 0.10 | 0.10 | 75 | 1010.3 |
| 20260904004243 | 61 | 17 | 2.0 | 4.0 | 0.00 | 0.10 | 0.10 | 75 | 1010.3 |
| 20260904003742 | 61 | 133 | 1.0 | 3.0 | 0.00 | 0.10 | 0.10 | 74 | 1010.3 |
| 20260904003242 | 62 | 102 | 1.0 | 3.0 | 0.00 | 0.10 | 0.10 | 74 | 1010.3 |
| 20260904002742 | 61 | 34 | 0.0 | 3.0 | 0.00 | 0.10 | 0.10 | 75 | 1010.3 |
| 20260904002242 | 62 | 30 | 1.0 | 4.0 | 0.00 | 0.10 | 0.10 | 75 | 1010.4 |
| 20260904001741 | 62 | 93 | 1.0 | 4.0 | 0.00 | 0.10 | 0.10 | 76 | 1010.4 |
| 20260904001242 | 62 | 297 | 1.0 | 2.0 | 0.00 | 0.10 | 0.10 | 75 | 1010.4 |
| 20260904000741 | 62 | 297 | 2.0 | 3.0 | 0.00 | 0.10 | 0.10 | 75 | 1010.5 |
| 20260904000241 | 62 | 297 | 1.0 | 3.0 | 0.00 | 0.10 | 0.10 | 75 | 1010.4 |
| 20260903235741 | 61 | 297 | 1.0 | 2.0 | 0.00 | 0.10 | 0.10 | 76 | 1010.4 |
| 20260903235241 | 61 | 297 | 1.0 | 2.0 | 0.00 | 0.10 | 0.10 | 76 | 1010.3 |
| 20260903234741 | 61 | 297 | 0.0 | 2.0 | 0.00 | 0.10 | 0.10 | 77 | 1010.4 |
| 20260903234241 | 61 | 297 | 1.0 | 2.0 | 0.00 | 0.10 | 0.10 | 77 | 1010.4 |
| 20260903233741 | 61 | 297 | 0.0 | 2.0 | 0.00 | 0.10 | 0.10 | 78 | 1010.5 |
| 20260903233241 | 61 | 297 | 1.0 | 3.0 | 0.00 | 0.10 | 0.10 | 78 | 1010.4 |
| 20260903232741 | 61 | 297 | 1.0 | 3.0 | 0.00 | 0.10 | 0.10 | 78 | 1010.4 |
| 20260903232241 | 61 | 297 | 1.0 | 3.0 | 0.00 | 0.10 | 0.10 | 79 | 1010.4 |
| 20260903231740 | 61 | 297 | 1.0 | 3.0 | 0.00 | 0.10 | 0.10 | 80 | 1010.4 |
| 20260903231241 | 61 | 79 | 0.0 | 3.0 | 0.00 | 0.10 | 0.10 | 79 | 1010.5 |
| 20260903230240 | 61 | 319 | 1.0 | 3.0 | 0.00 | 0.10 | 0.10 | 78 | 1010.6 |
| 20260903225741 | 61 | 31 | 1.0 | 3.0 | 0.00 | 0.10 | 0.10 | 78 | 1010.7 |
| 20260903225240 | 62 | 31 | 3.0 | 3.0 | 0.00 | 0.10 | 0.10 | 77 | 1010.6 |
| 20260903224740 | 62 | 128 | 0.0 | 2.0 | 0.00 | 0.10 | 0.10 | 77 | 1010.7 |
| 20260903223740 | 61 | 32 | 0.0 | 4.0 | 0.00 | 0.10 | 0.10 | 77 | 1010.8 |
| 20260903222739 | 61 | 27 | 1.0 | 5.0 | 0.00 | 0.10 | 0.10 | 76 | 1010.8 |
| 20260903221740 | 62 | 84 | 0.0 | 6.0 | 0.00 | 0.10 | 0.10 | 75 | 1010.8 |
| 20260903221239 | 62 | 102 | 2.0 | 6.0 | 0.00 | 0.10 | 0.10 | 75 | 1010.8 |
| 20260903220239 | 62 | 105 | 2.0 | 8.0 | 0.00 | 0.10 | 0.10 | 76 | 1010.8 |
| 20260903215739 | 62 | 155 | 1.0 | 7.0 | 0.00 | 0.10 | 0.10 | 76 | 1010.8 |
| 20260903214239 | 61 | 134 | 1.0 | 7.0 | 0.00 | 0.11 | 0.10 | 78 | 1010.8 |
| 20260903213739 | 61 | 110 | 2.0 | 7.0 | 0.00 | 0.11 | 0.10 | 77 | 1010.7 |
| 20260903213238 | 61 | 108 | 4.0 | 8.0 | 0.00 | 0.11 | 0.10 | 77 | 1010.7 |
| 20260903212738 | 61 | 89 | 5.0 | 8.0 | 0.00 | 0.11 | 0.10 | 76 | 1010.7 |
| 20260903212239 | 62 | 117 | 5.0 | 8.0 | 0.00 | 0.11 | 0.10 | 76 | 1010.7 |